www.pogodaiklimat.ru

Погода и климат >> Архив погоды >> Южная Африка >> Мтунзини


ПОГОДА в Мтунзини

  • Прогноз погоды в Мтунзини
  • Монитор погоды в Мтунзини

АРХИВ ПОГОДЫ в Мтунзини

Время (UTC), дата Ветер
(напр.,м/с)
 
Видим.   Явления Облачность Т
(С)
Тd
(С)
f
(%)
Тe
(С)
Тes
(С)
Комфортность P
(гПа)
Po
(гПа)
Тmin
(С)
Tmax
(С)
R
(мм)
R24
(мм)
S
(см)
00 12.09 СВ 5 н/о н/о +16.8 +15.5 92 +16 +16 1014.4 1009.6 +15.9 +31.0
06 12.09 СВ 2 н/о н/о +18.9 +16.7 87 +21 +21 комфорт 1014.9 1010.1 +15.9
12 12.09 СВ 6 н/о н/о +33.4 +13.8 31 +35 +35 душно 1007.3 1002.8 +15.9 +33.4
18 12.09 В 4 н/о н/о +24.0 +16.9 65 +28 +28 душно 1008.1 1003.4 +23.8 +33.8
00 13.09 ЮЗ 6 н/о н/о +20.4 +16.3 77 +23 +23 комфорт 1013.4 1008.6 +20.4 +33.8
06 13.09 ЮЗ 5 н/о н/о +22.3 +14.2 60 +26 +26 жарко 1016.0 1011.2 +18.8
12 13.09 Ю 5 н/о н/о +22.3 +16.2 68 +26 +26 жарко 1015.4 1010.6 +18.8 +24.8
18 13.09 ЮЗ 6 н/о н/о +16.6 +15.3 92 +16 +16 1019.8 1014.9 +16.6 +24.8 3
00 14.09 З 2 н/о н/о +15.5 +13.7 89 +16 +16 1021.2 1016.3 +15.3 +24.8 4
06 14.09 ЮЗ 3 н/о н/о +17.0 +14.3 84 +17 +17 1023.8 1018.9 +15.3 4
12 14.09 ЮЗ 2 н/о н/о +17.9 +13.6 76 +18 +18 1022.0 1017.1 +15.3 +18.4 0.2
18 14.09 С 1 н/о н/о +16.9 +14.2 84 +18 +18 1023.5 1018.6 +16.8 +18.4 0.2
00 15.09 ЮВ 1 н/о н/о +15.9 +14.6 92 +17 +17 1022.3 1017.4 +15.6 +18.4 0.2
06 15.09 СВ 2 н/о н/о +18.9 +15.4 80 +21 +21 комфорт 1022.7 1017.9 +15.6 0.2
12 15.09 СВ 6 н/о н/о +26.0 +16.1 54 +29 +29 душно 1017.7 1013.0 +15.6 +26.8
18 15.09 СВ 4 н/о н/о +19.8 +16.1 79 +22 +22 комфорт 1019.9 1015.1 +19.7 +26.8
00 16.09 СВ 2 н/о н/о +18.2 +16.5 90 +19 +19 1019.3 1014.5 +17.7 +26.8
06 16.09 СВ 3 н/о н/о +23.2 +18.1 73 +29 +29 душно 1019.5 1014.7 +17.7
12 16.09 СВ 5 н/о н/о +31.5 +17.3 43 +35 +35 очень
душно
1015.5 1010.9 +17.7 +31.7
18 16.09 СВ 5 н/о н/о +21.8 +18.2 80 +27 +27 душно 1017.9 1013.1 +21.8 +31.7
00 17.09 СВ 3 н/о н/о +21.4 +17.8 80 +26 +26 душно 1017.9 1013.1 +21.2 +31.7
06 17.09 СВ 4 н/о н/о +24.1 +18.3 70 +29 +29 душно 1017.9 1013.2 +19.4
12 17.09 Ю 4 н/о н/о +26.0 +18.3 63 +31 +31 очень
душно
1017.2 1012.5 +19.4 +28.0
18 17.09 С 10 н/о н/о +18.8 +17.3 91 +19 +19 1017.7 1012.9 +18.8 +28.0
00 18.09 З 2 н/о н/о +18.5 +17.5 94 +20 +20 1017.7 1012.9 +17.7 +28.0
06 18.09 ЮЗ 2 н/о н/о +20.9 +19.4 91 +26 +26 душно 1020.1 1015.3 +17.7
12 18.09 Ю 5 н/о н/о +26.2 +16.3 54 +30 +30 душно 1019.5 1014.8 +17.7 +26.3
18 18.09 ЮЗ 5 н/о н/о +21.6 +18.0 80 +26 +26 душно 1023.0 1018.2 +21.5 +26.4

 

Местоположение метеостанции Мтунзини (Южная Африка): широта -28.95 долгота 31.70 высота над уровнем моря 38 м.

В архиве по умолчанию представлена погода в Мтунзини за последнюю неделю. Архивные данные за месяц целиком и за предыдущие месяцы, начиная с января 2011 года, Вы можете получить, выбрав интересующий диапазон дат из раскрывающегося списка и нажав кнопку "Ввод!".


*Определитесь, кто Вы:
робот инопланетянин человек

Внимание! Время в таблицах - всемирное. Для получения местного времени необходимо прибавить поправку, которая равна 2 ч.

Смотрите также архив погоды в соседних городах и на ближайших метеорологических станциях:

Погода в Мандини (Южная Африка) (37 км)
Погода в Ричардс-Бей (Южная Африка) (45 км)
Погода в Удунди (Южная Африка) (75 км)
Погода в Бабананго (Южная Африка) (81 км)
Погода в Аэропорту Кинг Шака (Южная Африка) (92 км)
Погода в Маунт Эджком (Южная Африка) (105 км)
Погода в Грейтауне (Южная Африка) (108 км)
Погода на Станции Charters Creek (Южная Африка) (109 км)
Погода в Аэропорту Вирджиния (Южная Африка) (110 км)
Погода в Дурбане (Южная Африка) (134 км)

Пояснения к столбцам:

Ветер - указаны скорость ветра в м/с - средняя за 10 мин, порывы в срок и между сроками (в фигурных скобках) и направление, откуда дует ветер: С - северный, СВ - северо-восточный, В - восточный, ЮВ - юго-восточный, Ю - южный, ЮЗ - юго-западный, З - западный, СЗ - северо-западный.
Видимость - горизонтальная дальность видимости в метрах или километрах. При видимости от 1 до 10 км при отсутствии осадков обычно наблюдается дымка, при ухудшении видимости до 1 км и менее - туман. В сухую погоду видимость может ухудшаться дымом, пылью или мглою.
Явления - указаны атмосферные явления, наблюдавшиеся в срок или в последний час перед сроком; фигурными скобками обозначены явления, наблюдавшиеся между сроками (за 1-3 часа до срока); квадратными скобками обозначены град или гололедные отложения с указанием их диаметра в мм.
Облачность - указаны через наклонную черту общая и нижняя облачность в баллах и высота нижней границы облаков в метрах; квадратными скобками обозначены формы облаков: Ci - перистые, Cs - перисто-слоистые, Cc - перисто-кучевые, Ac - высококучевые, As - высокослоистые, Sc - слоисто-кучевые, Ns - слоисто-дождевые, Cu - кучевые, Cb - кучево-дождевые. Подробнее классификацию облаков см. в Атласе облаков (PDF).
T - Температура воздуха - температура, измеренная на высоте 2 м над землей.
Td - Температура точки росы - температура, при понижении до которой содержащийся в воздухе водяной пар достигнет насыщения.
f - Относительная влажность воздуха - влажноcть воздуха, измеренная на высоте 2 м над землей.
Te - Эффективная температура - температура, которую ощущает одетый по сезону человек в тени. Характеристика душности погоды. При расчете учитывается влияние влажности воздуха и скорости ветра на теплоощущения человека.
Tes - Эффективная температура на солнце - температура, которую ощущает человек, с поправкой на солнечный нагрев. Характеристика знойности погоды. Зависит от высоты солнца над горизонтом, облачности и скорости ветра. Ночью, в пасмурную погоду, а также при ветре 12 м/с и более поправка равна нулю.
P - Атмосферное давление - приведенное к уровню моря атмосферное давление.
Po - Атмосферное давление - измеренное на уровне метеостанции атмосферное давление.
Tmin - Минимальная температура - минимум температуры воздуха на высоте 2 м над землей.
Tmax - Максимальная температура - максимум температуры воздуха на высоте 2 м над землей.
R - Количество осадков - Количество выпавших осадков за период времени, мм. При наведении курсора мыши на число - период времени, за который выпало указанное количество осадков.
R24 - Количество осадков - Количество выпавших осадков за 24 часа, мм.
S - Снежный покров - Высота снежного покрова, см. При наведении курсора мыши на число - состояние снежного покрова и степень покрытия местности в баллах.